TimePDT,TemperatureF,Dew PointF,Humidity,Sea Level PressureIn,VisibilityMPH,Wind Direction,Wind SpeedMPH,Gust SpeedMPH,PrecipitationIn,Events,Conditions,WindDirDegrees,DateUTC
12:53 AM,53.1,53.1,100,29.98,10.0,Calm,Calm,-,N/A,,Overcast,0,2012-10-30 07:53:00
1:53 AM,53.1,53.1,100,29.96,4.0,Calm,Calm,-,0.05,Rain,Light Rain,0,2012-10-30 08:53:00
2:53 AM,53.1,53.1,100,29.94,8.0,Calm,Calm,-,0.04,Rain,Light Rain,0,2012-10-30 09:53:00
3:53 AM,53.1,53.1,100,29.92,8.0,South,3.5,-,0.01,Rain,Light Rain,180,2012-10-30 10:53:00
4:31 AM,53.6,53.6,100,29.88,2.5,Calm,Calm,-,0.05,Rain,Rain,0,2012-10-30 11:31:00
4:41 AM,53.6,53.6,100,29.88,4.0,Calm,Calm,-,0.06,Rain,Light Rain,0,2012-10-30 11:41:00
4:53 AM,53.1,53.1,100,29.89,7.0,Calm,Calm,-,0.07,Rain,Light Rain,0,2012-10-30 11:53:00
5:50 AM,53.6,53.6,100,29.87,8.0,Calm,Calm,-,0.01,Rain,Light Rain,0,2012-10-30 12:50:00
5:53 AM,53.1,53.1,100,29.88,7.0,Calm,Calm,-,0.01,Rain,Light Rain,0,2012-10-30 12:53:00
6:09 AM,53.6,53.6,100,29.86,2.0,Calm,Calm,-,N/A,Rain,Rain,0,2012-10-30 13:09:00
6:28 AM,53.6,53.6,100,29.86,3.0,Calm,Calm,-,0.09,Rain,Rain,0,2012-10-30 13:28:00
6:39 AM,53.6,53.6,100,29.87,3.0,NW,3.5,-,0.11,Rain,Rain,310,2012-10-30 13:39:00
6:53 AM,53.1,53.1,100,29.88,3.0,Calm,Calm,-,0.13,Rain,Light Rain,0,2012-10-30 13:53:00
7:53 AM,53.1,53.1,100,29.87,4.0,Calm,Calm,-,0.04,Rain,Light Rain,0,2012-10-30 14:53:00
8:38 AM,53.6,53.6,100,29.86,8.0,SSE,5.8,-,0.00,,Overcast,150,2012-10-30 15:38:00
8:53 AM,53.1,53.1,100,29.88,8.0,SSE,5.8,-,0.00,,Overcast,150,2012-10-30 15:53:00
9:36 AM,53.6,53.6,100,29.87,1.8,SSE,3.5,-,0.01,Rain,Light Rain,160,2012-10-30 16:36:00
9:40 AM,53.6,53.6,100,29.86,2.0,SSE,3.5,-,0.01,Rain,Light Rain,160,2012-10-30 16:40:00
9:45 AM,53.6,53.6,100,29.87,3.0,Calm,Calm,-,0.01,Rain,Light Rain,0,2012-10-30 16:45:00
9:53 AM,54.0,54.0,100,29.88,6.0,Calm,Calm,-,0.01,Rain,Light Rain,0,2012-10-30 16:53:00
10:08 AM,53.6,53.6,100,29.86,3.0,SSE,4.6,-,0.01,Rain,Light Rain,160,2012-10-30 17:08:00
10:20 AM,53.6,53.6,100,29.86,2.5,SSE,3.5,-,0.01,Rain,Light Rain,150,2012-10-30 17:20:00
10:34 AM,55.4,55.4,100,29.86,3.0,Calm,Calm,-,0.01,,Overcast,0,2012-10-30 17:34:00
10:53 AM,55.0,55.0,100,29.87,5.0,Calm,Calm,-,0.01,,Overcast,0,2012-10-30 17:53:00
11:03 AM,55.4,55.4,100,29.86,5.0,Calm,Calm,-,0.01,Rain,Light Rain,0,2012-10-30 18:03:00
11:10 AM,55.4,55.4,100,29.86,9.0,ESE,3.5,-,0.01,Rain,Light Rain,110,2012-10-30 18:10:00
11:53 AM,57.0,57.0,100,29.87,10.0,Calm,Calm,-,0.02,Rain,Light Rain,0,2012-10-30 18:53:00
12:53 PM,57.0,57.0,100,29.86,10.0,ESE,3.5,-,0.02,Rain,Light Rain,110,2012-10-30 19:53:00
1:53 PM,57.9,57.9,100,29.83,6.0,East,4.6,-,0.04,Rain,Light Rain,100,2012-10-30 20:53:00
2:36 PM,57.2,57.2,100,29.81,2.5,East,3.5,-,0.08,Rain,Rain,100,2012-10-30 21:36:00
2:53 PM,57.0,57.0,100,29.82,2.5,Calm,Calm,-,0.11,Rain,Rain,0,2012-10-30 21:53:00
3:03 PM,57.2,57.2,100,29.81,2.5,Calm,Calm,-,0.04,Rain,Rain,0,2012-10-30 22:03:00
3:33 PM,55.4,55.4,100,29.79,4.0,ESE,3.5,-,0.11,Rain,Light Rain,120,2012-10-30 22:33:00
3:53 PM,55.9,55.9,100,29.81,4.0,Calm,Calm,-,0.14,Rain,Light Rain,0,2012-10-30 22:53:00
4:53 PM,55.4,55.4,100,29.77,6.0,Calm,Calm,-,N/A,Rain,Light Rain,0,2012-10-30 23:53:00
5:53 PM,55.9,55.9,100,29.78,8.0,Calm,Calm,-,0.04,Rain,Light Rain,0,2012-10-31 00:53:00
6:53 PM,55.9,55.9,100,29.78,8.0,Variable,3.5,-,0.04,Rain,Light Rain,0,2012-10-31 01:53:00
7:53 PM,57.0,55.9,96,29.78,10.0,SE,4.6,-,0.05,Rain,Light Rain,140,2012-10-31 02:53:00
8:53 PM,57.0,57.0,100,29.77,8.0,SE,5.8,-,0.04,Rain,Light Rain,140,2012-10-31 03:53:00
9:53 PM,55.9,55.9,100,29.77,10.0,Calm,Calm,-,0.07,Rain,Light Rain,0,2012-10-31 04:53:00
10:53 PM,55.9,55.9,100,29.78,9.0,Calm,Calm,-,0.02,Rain,Light Rain,0,2012-10-31 05:53:00
11:53 PM,55.9,55.0,97,29.77,10.0,SSE,3.5,-,0.06,Rain,Light Rain,160,2012-10-31 06:53:00